When you browse on this site, cookies collect data to enhance your experience and personalize the content and advertising you see.
Visit our Privacy Policy to learn more. By continuing to use the site, you agree to this use of cookies and data.
  • en Suisse
  • Liste des pays
  • À 7 jours
  • Température de l'eau
  • Carte météo
  • Widgets météo
  • user-avatar
    Se connecter

    Météo par heure à Midlothian

    Ce jour, 27 Mai, Mercredi

    Heure Température Précipitation Vent Pression Humidité
    00:00 +7°C° 0 mm 2 m/s 753 mmHg 82%
    01:00 +7°C° 0 mm 2 m/s 753 mmHg 79%
    02:00 +7°C° 0 mm 2 m/s 753 mmHg 76%
    03:00 +7°C° 0 mm 3 m/s 752 mmHg 72%
    04:00 +7°C° 0 mm 2 m/s 753 mmHg 72%
    05:00 +8°C° 0 mm 2 m/s 753 mmHg 72%
    06:00 +9°C° 0 mm 2 m/s 753 mmHg 72%
    07:00 +10°C° 0 mm 2 m/s 753 mmHg 70%
    08:00 +10°C° 0 mm 2 m/s 753 mmHg 68%
    09:00 +12°C° 0 mm 2 m/s 754 mmHg 66%
    10:00 +13°C° 0 mm 2 m/s 754 mmHg 63%
    11:00 +14°C° 0 mm 2 m/s 754 mmHg 59%
    12:00 +16°C° 0 mm 2 m/s 754 mmHg 56%
    13:00 +15°C° 0 mm 2 m/s 754 mmHg 58%
    14:00 +14°C° 0 mm 3 m/s 754 mmHg 60%
    15:00 +14°C° 0 mm 3 m/s 754 mmHg 63%
    16:00 +13°C° 0 mm 3 m/s 753 mmHg 67%
    17:00 +13°C° 0 mm 3 m/s 753 mmHg 71%
    18:00 +12°C° 0 mm 3 m/s 753 mmHg 75%
    19:00 +11°C° 0 mm 3 m/s 753 mmHg 79%
    20:00 +10°C° 0 mm 2 m/s 753 mmHg 83%
    21:00 +8°C° 0 mm 2 m/s 753 mmHg 87%
    22:00 +9°C° 0 mm 2 m/s 753 mmHg 86%
    23:00 +9°C° 0 mm 2 m/s 753 mmHg 85%

    Demain, 28 Mai, Jeudi

    Heure Température Précipitation Vent Pression Humidité
    00:00 +9°C° 0 mm 2 m/s 753 mmHg 83%
    01:00 +9°C° 0 mm 2 m/s 752 mmHg 83%
    02:00 +9°C° 0 mm 2 m/s 752 mmHg 82%
    03:00 +9°C° 0 mm 2 m/s 752 mmHg 82%
    04:00 +10°C° 0 mm 2 m/s 751 mmHg 81%
    05:00 +10°C° 0 mm 2 m/s 751 mmHg 80%
    06:00 +11°C° 0 mm 3 m/s 751 mmHg 80%
    07:00 +13°C° 0 mm 3 m/s 751 mmHg 77%
    08:00 +14°C° 0 mm 3 m/s 751 mmHg 75%
    09:00 +17°C° 0 mm 3 m/s 751 mmHg 73%
    10:00 +18°C° 0 mm 3 m/s 751 mmHg 70%
    11:00 +19°C° 0 mm 3 m/s 751 mmHg 68%
    12:00 +21°C° 0 mm 3 m/s 751 mmHg 66%
    13:00 +21°C° 0.2 mm 2 m/s 750 mmHg 67%
    14:00 +21°C° 0.2 mm 2 m/s 750 mmHg 69%
    15:00 +21°C° 0.2 mm 2 m/s 750 mmHg 70%
    16:00 +20°C° 0.3 mm 2 m/s 750 mmHg 73%
    17:00 +20°C° 0.3 mm 2 m/s 749 mmHg 76%
    18:00 +21°C° 0.3 mm 1 m/s 749 mmHg 79%
    19:00 +19°C° 0 mm 1 m/s 749 mmHg 83%
    20:00 +18°C° 0 mm 1 m/s 749 mmHg 86%
    21:00 +15°C° 0 mm 1 m/s 749 mmHg 89%
    22:00 +14°C° 0 mm 1 m/s 749 mmHg 89%
    23:00 +14°C° 0 mm 1 m/s 748 mmHg 90%

    Après-demain, 29 Mai, Vendredi

    Heure Température Précipitation Vent Pression Humidité
    00:00 +13°C° 0 mm 1 m/s 748 mmHg 90%
    01:00 +13°C° 0 mm 1 m/s 748 mmHg 91%
    02:00 +13°C° 0 mm 1 m/s 748 mmHg 91%
    03:00 +12°C° 0 mm 1 m/s 748 mmHg 92%
    04:00 +13°C° 0 mm 1 m/s 748 mmHg 91%
    05:00 +14°C° 0 mm 1 m/s 748 mmHg 90%
    06:00 +14°C° 0 mm 0 m/s 747 mmHg 89%
    07:00 +18°C° 0 mm 1 m/s 747 mmHg 84%
    08:00 +19°C° 0 mm 1 m/s 747 mmHg 79%
    09:00 +20°C° 0 mm 1 m/s 747 mmHg 74%
    10:00 +20°C° 0 mm 2 m/s 747 mmHg 71%
    11:00 +21°C° 0 mm 2 m/s 747 mmHg 69%
    12:00 +22°C° 0 mm 3 m/s 747 mmHg 66%
    13:00 +22°C° 0.2 mm 3 m/s 747 mmHg 68%
    14:00 +22°C° 0.2 mm 3 m/s 746 mmHg 70%
    15:00 +22°C° 0.2 mm 3 m/s 746 mmHg 72%
    16:00 +21°C° 0.4 mm 3 m/s 746 mmHg 75%
    17:00 +21°C° 0.4 mm 3 m/s 746 mmHg 77%
    18:00 +20°C° 0.4 mm 3 m/s 746 mmHg 79%
    19:00 +19°C° 0.1 mm 3 m/s 746 mmHg 83%
    20:00 +17°C° 0.1 mm 2 m/s 746 mmHg 87%
    21:00 +15°C° 0.1 mm 2 m/s 746 mmHg 90%
    22:00 +15°C° 0 mm 2 m/s 746 mmHg 91%
    23:00 +14°C° 0 mm 1 m/s 746 mmHg 91%

    30 Mai, Samedi

    Heure Température Précipitation Vent Pression Humidité
    00:00 +13°C° 0 mm 1 m/s 746 mmHg 92%
    01:00 +13°C° 0 mm 1 m/s 746 mmHg 92%
    02:00 +13°C° 0 mm 1 m/s 745 mmHg 93%
    03:00 +12°C° 0 mm 1 m/s 745 mmHg 93%
    04:00 +13°C° 0 mm 1 m/s 745 mmHg 92%
    05:00 +14°C° 0 mm 1 m/s 745 mmHg 91%
    06:00 +14°C° 0 mm 1 m/s 745 mmHg 90%
    07:00 +16°C° 0 mm 1 m/s 746 mmHg 85%
    08:00 +18°C° 0 mm 1 m/s 746 mmHg 81%
    09:00 +18°C° 0 mm 2 m/s 746 mmHg 76%
    10:00 +19°C° 0 mm 2 m/s 746 mmHg 73%
    11:00 +19°C° 0 mm 3 m/s 746 mmHg 69%
    12:00 +20°C° 0 mm 3 m/s 746 mmHg 66%
    13:00 +20°C° 0 mm 4 m/s 745 mmHg 66%
    14:00 +20°C° 0 mm 4 m/s 745 mmHg 67%
    15:00 +20°C° 0 mm 4 m/s 745 mmHg 67%
    16:00 +19°C° 0 mm 4 m/s 745 mmHg 70%
    17:00 +18°C° 0 mm 4 m/s 745 mmHg 73%
    18:00 +18°C° 0 mm 4 m/s 745 mmHg 77%
    19:00 +16°C° 0 mm 3 m/s 745 mmHg 80%
    20:00 +13°C° 0 mm 3 m/s 745 mmHg 83%
    21:00 +13°C° 0 mm 2 m/s 745 mmHg 86%
    22:00 +12°C° 0 mm 2 m/s 745 mmHg 85%
    23:00 +12°C° 0 mm 2 m/s 745 mmHg 84%

    31 Mai, Dimanche

    Heure Température Précipitation Vent Pression Humidité
    00:00 +11°C° 0 mm 1 m/s 745 mmHg 84%
    01:00 +11°C° 0 mm 1 m/s 745 mmHg 84%
    02:00 +11°C° 0 mm 1 m/s 744 mmHg 83%
    03:00 +11°C° 0 mm 1 m/s 744 mmHg 83%
    04:00 +11°C° 0 mm 1 m/s 744 mmHg 83%
    05:00 +12°C° 0 mm 1 m/s 744 mmHg 83%
    06:00 +12°C° 0 mm 1 m/s 744 mmHg 83%
    07:00 +14°C° 0 mm 1 m/s 744 mmHg 79%
    08:00 +15°C° 0 mm 1 m/s 745 mmHg 76%
    09:00 +16°C° 0 mm 1 m/s 745 mmHg 72%
    10:00 +17°C° 0 mm 2 m/s 745 mmHg 71%
    11:00 +18°C° 0 mm 2 m/s 745 mmHg 69%
    12:00 +18°C° 0 mm 3 m/s 744 mmHg 68%
    13:00 +18°C° 0.1 mm 3 m/s 744 mmHg 69%
    14:00 +18°C° 0.1 mm 3 m/s 744 mmHg 69%
    15:00 +18°C° 0.1 mm 3 m/s 744 mmHg 70%
    16:00 +18°C° 0.1 mm 3 m/s 743 mmHg 73%
    17:00 +17°C° 0.1 mm 4 m/s 743 mmHg 76%
    18:00 +17°C° 0.1 mm 4 m/s 743 mmHg 79%
    19:00 +14°C° 0.1 mm 3 m/s 743 mmHg 81%
    20:00 +13°C° 0.1 mm 3 m/s 743 mmHg 83%
    21:00 +13°C° 0.1 mm 2 m/s 743 mmHg 85%
    22:00 +13°C° 0 mm 2 m/s 743 mmHg 85%
    23:00 +13°C° 0 mm 2 m/s 742 mmHg 85%

    1 Juin, Lundi

    Heure Température Précipitation Vent Pression Humidité
    00:00 +13°C° 0 mm 1 m/s 742 mmHg 84%
    01:00 +12°C° 0 mm 1 m/s 742 mmHg 87%
    02:00 +12°C° 0 mm 1 m/s 742 mmHg 89%
    03:00 +11°C° 0 mm 1 m/s 741 mmHg 91%
    04:00 +12°C° 0 mm 1 m/s 741 mmHg 90%
    05:00 +12°C° 0 mm 1 m/s 741 mmHg 89%
    06:00 +13°C° 0 mm 1 m/s 741 mmHg 88%
    07:00 +14°C° 0 mm 1 m/s 741 mmHg 83%
    08:00 +16°C° 0 mm 1 m/s 741 mmHg 78%
    09:00 +17°C° 0 mm 2 m/s 741 mmHg 73%
    10:00 +18°C° 0.2 mm 2 m/s 741 mmHg 72%
    11:00 +18°C° 0.2 mm 3 m/s 741 mmHg 71%
    12:00 +19°C° 0.2 mm 3 m/s 741 mmHg 70%
    13:00 +18°C° 0.4 mm 3 m/s 741 mmHg 71%
    14:00 +18°C° 0.4 mm 3 m/s 741 mmHg 73%
    15:00 +18°C° 0.4 mm 3 m/s 740 mmHg 74%
    16:00 +18°C° 0.5 mm 3 m/s 740 mmHg 77%
    17:00 +18°C° 0.5 mm 3 m/s 740 mmHg 79%
    18:00 +17°C° 0.5 mm 3 m/s 740 mmHg 81%
    19:00 +16°C° 0.2 mm 3 m/s 740 mmHg 83%
    20:00 +14°C° 0.2 mm 2 m/s 741 mmHg 85%
    21:00 +13°C° 0.2 mm 2 m/s 741 mmHg 87%
    22:00 +12°C° 0 mm 2 m/s 741 mmHg 87%
    23:00 +10°C° 0 mm 2 m/s 741 mmHg 87%
    Voir plus